TimeCST,TemperatureF,Dew PointF,Humidity,Sea Level PressureIn,VisibilityMPH,Wind Direction,Wind SpeedMPH,Gust SpeedMPH,PrecipitationIn,Events,Conditions,WindDirDegrees,DateUTC
12:54 AM,35.1,26.1,70,30.29,10.0,NNW,8.1,-,N/A,,Overcast,340,2012-11-27 06:54:00
1:54 AM,33.1,27.0,78,30.31,10.0,North,6.9,-,N/A,,Clear,350,2012-11-27 07:54:00
2:54 AM,32.0,26.1,79,30.32,9.0,North,10.4,-,N/A,,Clear,350,2012-11-27 08:54:00
3:54 AM,30.9,26.1,82,30.32,8.0,North,9.2,-,N/A,,Clear,350,2012-11-27 09:54:00
4:54 AM,30.9,26.1,82,30.32,8.0,North,5.8,-,N/A,,Clear,350,2012-11-27 10:54:00
5:54 AM,30.9,26.1,82,30.35,9.0,Variable,3.5,-,N/A,,Clear,0,2012-11-27 11:54:00
6:54 AM,30.9,26.1,82,30.38,5.0,NNW,4.6,-,N/A,,Clear,330,2012-11-27 12:54:00
7:54 AM,32.0,26.1,79,30.40,5.0,North,5.8,-,N/A,,Clear,350,2012-11-27 13:54:00
8:54 AM,35.1,28.0,76,30.41,5.0,North,5.8,-,N/A,,Clear,10,2012-11-27 14:54:00
9:54 AM,37.0,28.9,73,30.41,7.0,North,9.2,-,N/A,,Partly Cloudy,10,2012-11-27 15:54:00
10:54 AM,39.9,28.9,65,30.41,10.0,NNE,6.9,-,N/A,,Scattered Clouds,20,2012-11-27 16:54:00
11:54 AM,42.1,30.0,62,30.38,10.0,NNE,4.6,-,N/A,,Partly Cloudy,20,2012-11-27 17:54:00
12:54 PM,43.0,28.0,56,30.36,10.0,North,8.1,-,N/A,,Clear,360,2012-11-27 18:54:00
1:54 PM,43.0,27.0,53,30.34,10.0,NNW,6.9,-,N/A,,Clear,330,2012-11-27 19:54:00
2:54 PM,43.0,26.1,51,30.34,10.0,North,8.1,-,N/A,,Clear,360,2012-11-27 20:54:00
3:54 PM,41.0,25.0,53,30.35,10.0,NNW,4.6,-,N/A,,Clear,330,2012-11-27 21:54:00
4:54 PM,39.0,24.1,55,30.36,10.0,Calm,Calm,-,N/A,,Clear,0,2012-11-27 22:54:00
6:54 PM,30.0,24.1,79,30.37,9.0,Calm,Calm,-,N/A,,Clear,0,2012-11-28 00:54:00
7:54 PM,28.0,23.0,81,30.37,9.0,Calm,Calm,-,N/A,,Clear,0,2012-11-28 01:54:00
8:54 PM,26.1,21.9,84,30.37,7.0,Calm,Calm,-,N/A,,Clear,0,2012-11-28 02:54:00
9:54 PM,27.0,21.9,81,30.39,8.0,Calm,Calm,-,N/A,,Clear,0,2012-11-28 03:54:00
10:54 PM,26.1,21.9,84,30.38,8.0,Calm,Calm,-,N/A,,Clear,0,2012-11-28 04:54:00
11:54 PM,27.0,21.9,81,30.37,7.0,Calm,Calm,-,N/A,,Clear,0,2012-11-28 05:54:00